Flag for Germany Weather past 2 weeks in Schwerte, North Rhine-Westphalia, Germany

Now
35 °F

Passing clouds.


Feels Like: 35 °F
Forecast: 45 / 50 °F
Wind: 1 mph from Southwest

Location: Duesseldorf

Current Time: Mar 28, 2015 at 5:52:28 AM

Latest Report: Mar 28, 2015 at 3:00 AM


Visibility: 16 mi

Pressure: 30.22 "Hg

Humidity: 90%

Dew point: 32 °F

Location of SchwerteLocation

Historic Weather in Schwerte — Graph

°F

Schwerte temperature yesterday

Maximum temperature yesterday: 49 °F (at 2:00 PM)
Minimum temperature yesterday: 37 °F (at 11:00 PM)
Average temperature yesterday: 44 °F

Past Weeks' High & Low Weather Summary

 TemperatureHumidityPressure
High65 °F (Mar 17, 3:00 PM)99% (Mar 20, 1:00 AM)30.39 "Hg (Mar 20, 1:00 AM)
Low27 °F (Mar 13, 7:00 AM)35% (Mar 17, 5:00 PM)29.66 "Hg (Mar 25, 2:00 AM)
Average43 °F78%30.14 "Hg
* Reported Mar 13 3:00 AM — Mar 28 3:00 AM, Schwerte, Weather by CustomWeather, © 2015

Note: Actual official high and low records may vary slightly from our data, if they occured in-between our weather recording intervals... More about our weather records

Advertising

Schwerte weather history for previous 24 hours

 ConditionsComfort  
Time TempWeatherWind HumidityBarometerVisibility
3:00 AM
Sat, Mar 28
35 °FPassing clouds.1 mph90%30.22 "Hg16 mi
2:00 AM38 °FOvercast.2 mph85%30.23 "Hg16 mi
1:00 AM39 °FOvercast.2 mph84%30.23 "Hg16 mi
12:00 AM38 °FOvercast.2 mph86%30.23 "Hg16 mi
11:00 PM
Fri, Mar 27
37 °FPassing clouds.2 mph89%30.23 "Hg19 mi
9:00 PM43 °FPassing clouds.2 mph72%30.22 "Hg19 mi
8:00 PM46 °FPassing clouds.3 mph67%30.19 "Hg19 mi
7:00 PM47 °FPassing clouds.5 mph63%30.17 "Hg19 mi
6:00 PM47 °FOvercast.6 mph61%30.15 "Hg19 mi
5:00 PM48 °FOvercast.7 mph59%30.13 "Hg19 mi
3:00 PM49 °FOvercast.8 mph57%30.09 "Hg19 mi
2:00 PM49 °FPartly sunny.8 mph55%30.06 "Hg19 mi
1:00 PM48 °FOvercast.9 mph59%30.06 "Hg19 mi
12:00 PM45 °FOvercast.8 mph73%30.05 "Hg19 mi
11:00 AM45 °FOvercast.8 mph74%30.02 "Hg19 mi
9:00 AM44 °FOvercast.10 mph74%29.98 "Hg12 mi
8:00 AM43 °FOvercast.7 mph79%29.96 "Hg16 mi
7:00 AM42 °FOvercast.7 mph82%29.93 "Hg16 mi
6:00 AM42 °FRain. Overcast.7 mph82%29.90 "Hg12 mi
5:00 AM42 °FOvercast.6 mph81%29.88 "Hg16 mi
Weather by CustomWeather, © 2015

See weather overviewHow to use our weather pages